, AK

(GMT )
Portage Glacier

Weather History for PATO - January, 2014

Change the Weather History Date:

Thursday, January 2, 2014

  Actual Average Record
Temperature  
Mean Temperature 32 °F -  
Max Temperature 36 °F - - ()
Min Temperature 27 °F - - ()
Degree Days  
Heating Degree Days 33    
Moisture  
Dew Point 31 °F    
Average Humidity 97    
Maximum Humidity 100    
Minimum Humidity 89    
Precipitation  
Precipitation 0.00 in - - ()
Sea Level Pressure  
Sea Level Pressure 29.84 in    
Wind  
Wind Speed 6 mph (West)    
Max Wind Speed 9 mph    
Max Gust Speed -    
Visibility 9 miles    
Events      
Averages and records for this station are not official NWS values.
T = Trace of Precipitation, MM = Missing Value Source: NWS Daily Summary

Daily Weather History Graph

Daily Weather History Graph

Search for Another Location

Airport or City:

Trip Planner

Search our weather history database for the weather conditions in past years. The results will help you decide how hot, cold, wet, or windy it might be!

Date:

Astronomy

Jan. 02, 2014 Rise Set
Actual Time 10:04 AM AKST 3:55 PM AKST
Civil Twilight 9:05 AM AKST 4:54 PM AKST
Nautical Twilight 8:07 AM AKST 5:51 PM AKST
Astronomical Twilight 7:14 AM AKST 6:44 PM AKST
Moon 10:11 AM AKST (1/2) 6:50 PM AKST (1/2)
Length of Visible Light 7h 48m
Length of Day
5h 50m
Waxing Crescent, 3% of the Moon is Illuminated
Jan 2
Waxing Crescent
Jan 7
First Quarter
Jan 15
Full
Jan 23
Last Quarter
Jan 30
New

Hourly Weather History & Observations

Time (AKST) Temp. Windchill Dew Point Humidity Pressure Visibility Wind Dir Wind Speed Gust Speed Precip Events Conditions
12:24 AM 36.0 °F 29.0 °F 33.1 °F 89% 29.52 in 10.0 mi East 9.2 mph - N/A   Overcast
12:53 AM 35.1 °F 28.6 °F 33.1 °F 92% 29.54 in 10.0 mi ENE 8.1 mph - N/A   Overcast
1:53 AM 35.1 °F 28.6 °F 33.1 °F 92% 29.57 in 10.0 mi East 8.1 mph - N/A   Overcast
3:53 AM 35.1 °F 28.6 °F 33.1 °F 92% 29.63 in 10.0 mi East 8.1 mph - N/A   Mostly Cloudy
4:53 AM 34.0 °F 31.0 °F 33.1 °F 96% 29.65 in 10.0 mi Variable 3.5 mph - N/A   Mostly Cloudy
5:53 AM 30.0 °F 26.5 °F 30.0 °F 100% 29.67 in 10.0 mi West 3.5 mph - N/A   Mostly Cloudy
6:17 AM 30.9 °F 26.2 °F 30.9 °F 100% 29.68 in 10.0 mi West 4.6 mph - N/A   Overcast
6:53 AM 32.0 °F 28.7 °F 32.0 °F 100% 29.70 in 10.0 mi West 3.5 mph - N/A   Overcast
7:06 AM 32.0 °F 28.7 °F 32.0 °F 100% 29.70 in 10.0 mi WSW 3.5 mph - N/A   Overcast
7:36 AM 32.0 °F 28.7 °F 32.0 °F 100% 29.72 in 3.0 mi West 3.5 mph - N/A   Overcast
7:53 AM 32.0 °F - 32.0 °F 100% 29.73 in 3.0 mi Calm Calm - N/A   Overcast
8:50 AM 32.0 °F 27.5 °F 32.0 °F 100% 29.76 in 9.0 mi WNW 4.6 mph - N/A   Overcast
8:53 AM 32.0 °F 27.5 °F 32.0 °F 100% 29.77 in 7.0 mi WNW 4.6 mph - N/A   Overcast
9:26 AM 32.0 °F 27.5 °F 32.0 °F 100% 29.79 in 10.0 mi WNW 4.6 mph - N/A   Overcast
9:53 AM 32.0 °F 27.5 °F 32.0 °F 100% 29.81 in 10.0 mi WNW 4.6 mph - N/A   Overcast
10:01 AM 33.1 °F 28.7 °F 32.0 °F 96% 29.81 in 10.0 mi WNW 4.6 mph - N/A   Overcast
10:53 AM 32.0 °F 27.5 °F 32.0 °F 100% 29.84 in 5.0 mi WNW 4.6 mph - 0.00 in   Overcast
11:53 AM 32.0 °F 28.7 °F 32.0 °F 100% 29.87 in 9.0 mi NW 3.5 mph - 0.00 in   Overcast
12:17 PM 33.1 °F 30.0 °F 33.1 °F 100% 29.88 in 10.0 mi West 3.5 mph - N/A   Overcast
12:53 PM 32.0 °F 27.5 °F 32.0 °F 100% 29.89 in 10.0 mi WNW 4.6 mph - N/A   Overcast
1:53 PM 32.0 °F 26.4 °F 32.0 °F 100% 29.91 in 10.0 mi West 5.8 mph - N/A   Overcast
2:53 PM 32.0 °F 27.5 °F 32.0 °F 100% 29.92 in 10.0 mi West 4.6 mph - N/A   Overcast
3:53 PM 32.0 °F 26.4 °F 30.9 °F 96% 29.95 in 10.0 mi West 5.8 mph - N/A   Overcast
4:53 PM 30.9 °F 25.2 °F 30.0 °F 96% 29.97 in 10.0 mi West 5.8 mph - 0.00 in   Mostly Cloudy
5:53 PM 30.9 °F 24.3 °F 30.0 °F 96% 30.00 in 10.0 mi West 6.9 mph - N/A   Overcast
6:53 PM 30.0 °F 25.2 °F 28.9 °F 96% 30.02 in 10.0 mi WNW 4.6 mph - N/A   Scattered Clouds
7:22 PM 30.0 °F 22.4 °F 28.0 °F 92% 30.02 in 10.0 mi West 8.1 mph - N/A   Mostly Cloudy
7:33 PM 28.9 °F 21.9 °F 28.0 °F 96% 30.02 in 10.0 mi West 6.9 mph - N/A   Scattered Clouds
7:53 PM 28.9 °F 21.9 °F 27.0 °F 92% 30.03 in 10.0 mi West 6.9 mph - N/A   Clear
8:53 PM 28.0 °F 19.3 °F 26.1 °F 92% 30.05 in 10.0 mi WSW 9.2 mph - N/A   Clear
9:53 PM 28.0 °F - 27.0 °F 96% 30.05 in 10.0 mi Calm Calm - N/A   Clear
10:53 PM 28.9 °F - 28.0 °F 96% 30.09 in 10.0 mi Calm Calm - N/A   Clear
11:53 PM 27.0 °F 23.0 °F 27.0 °F 100% 30.10 in 10.0 mi West 3.5 mph - N/A   Clear